Time,TemperatureF,DewpointF,PressureIn,WindDirection,WindDirectionDegrees,WindSpeedMPH,WindSpeedGustMPH,Humidity,HourlyPrecipIn,Conditions,Clouds,dailyrainin,SoftwareType,DateUTC
2013-09-05 00:01:00,73.5,62.7,30.05,West,273,2.7,3.5,69,0.00,CLR,,0.00,WeatherDisplay:10.37,2013-09-05 04:01:00,
2013-09-05 00:02:00,73.5,62.7,30.05,West,273,1.9,3.5,69,0.00,CLR,,0.00,WeatherDisplay:10.37,2013-09-05 04:02:00,
2013-09-05 00:07:00,73.5,62.3,30.05,West,275,2.8,3.5,68,0.00,CLR,,0.00,WeatherDisplay:10.37,2013-09-05 04:07:00,
2013-09-05 00:12:00,73.5,62.3,30.06,West,275,2.7,3.5,68,0.00,CLR,,0.00,WeatherDisplay:10.37,2013-09-05 04:12:00,
2013-09-05 00:17:00,73.3,62.1,30.05,West,276,3.0,3.5,68,0.00,CLR,,0.00,WeatherDisplay:10.37,2013-09-05 04:17:00,
2013-09-05 00:22:00,73.5,62.3,30.05,WNW,285,3.3,4.6,68,0.00,CLR,,0.00,WeatherDisplay:10.37,2013-09-05 04:22:00,
2013-09-05 00:27:00,73.7,62.1,30.05,West,276,3.5,4.6,67,0.00,CLR,,0.00,WeatherDisplay:10.37,2013-09-05 04:27:00,
2013-09-05 00:32:00,73.7,62.1,30.05,WNW,287,4.3,5.8,67,0.00,CLR,,0.00,WeatherDisplay:10.37,2013-09-05 04:32:00,
2013-09-05 00:37:00,73.7,62.5,30.05,West,279,2.9,3.5,68,0.00,CLR,,0.00,WeatherDisplay:10.37,2013-09-05 04:37:00,
2013-09-05 00:42:00,73.5,62.7,30.05,WNW,284,3.5,4.0,69,0.00,CLR,,0.00,WeatherDisplay:10.37,2013-09-05 04:42:00,
2013-09-05 00:47:00,73.7,62.5,30.05,West,274,3.5,6.9,68,0.00,CLR,,0.00,WeatherDisplay:10.37,2013-09-05 04:47:00,
2013-09-05 00:52:00,73.7,62.5,30.06,WNW,282,3.0,3.5,68,0.00,CLR,,0.00,WeatherDisplay:10.37,2013-09-05 04:52:00,
2013-09-05 00:57:00,73.7,62.9,30.06,WNW,301,3.1,5.8,69,0.00,CLR,,0.00,WeatherDisplay:10.37,2013-09-05 04:57:00,
2013-09-05 01:02:00,73.3,62.5,30.06,WNW,283,3.3,3.5,69,0.00,CLR,,0.00,WeatherDisplay:10.37,2013-09-05 05:02:00,
2013-09-05 01:07:00,73.3,62.5,30.06,West,281,2.6,5.8,69,0.00,CLR,,0.00,WeatherDisplay:10.37,2013-09-05 05:07:00,
2013-09-05 01:12:00,73.3,62.5,30.06,WNW,293,3.1,3.5,69,0.00,CLR,,0.00,WeatherDisplay:10.37,2013-09-05 05:12:00,
2013-09-05 01:17:00,73.2,62.8,30.05,WNW,287,2.2,3.5,70,0.00,CLR,,0.00,WeatherDisplay:10.37,2013-09-05 05:17:00,
2013-09-05 01:22:00,73.0,62.6,30.05,West,276,3.9,6.0,70,0.00,CLR,,0.00,WeatherDisplay:10.37,2013-09-05 05:22:00,
2013-09-05 01:27:00,73.0,62.6,30.05,West,281,3.8,4.6,70,0.00,CLR,,0.00,WeatherDisplay:10.37,2013-09-05 05:27:00,
2013-09-05 01:32:00,72.8,62.4,30.05,WNW,287,4.3,5.8,70,0.00,CLR,,0.00,WeatherDisplay:10.37,2013-09-05 05:32:00,
2013-09-05 01:37:00,72.7,61.9,30.05,WNW,293,2.7,3.5,69,0.00,CLR,,0.00,WeatherDisplay:10.37,2013-09-05 05:37:00,
2013-09-05 01:42:00,72.5,62.2,30.05,West,279,3.6,4.0,70,0.00,CLR,,0.00,WeatherDisplay:10.37,2013-09-05 05:42:00,
2013-09-05 01:47:00,72.5,62.2,30.05,West,278,3.9,4.0,70,0.00,CLR,,0.00,WeatherDisplay:10.37,2013-09-05 05:47:00,
2013-09-05 01:52:00,72.5,62.2,30.05,West,271,3.4,4.6,70,0.00,CLR,,0.00,WeatherDisplay:10.37,2013-09-05 05:52:00,
2013-09-05 01:57:00,72.3,62.4,30.05,West,281,1.8,3.5,71,0.00,CLR,,0.00,WeatherDisplay:10.37,2013-09-05 05:57:00,
2013-09-05 02:02:00,72.0,62.5,30.05,West,281,2.8,4.0,72,0.00,CLR,,0.00,WeatherDisplay:10.37,2013-09-05 06:02:00,
2013-09-05 02:07:00,71.8,62.3,30.05,WNW,299,3.3,4.0,72,0.00,CLR,,0.00,WeatherDisplay:10.37,2013-09-05 06:07:00,
2013-09-05 02:12:00,71.8,62.7,30.05,NW,306,2.2,3.5,73,0.00,CLR,,0.00,WeatherDisplay:10.37,2013-09-05 06:12:00,
2013-09-05 02:17:00,71.6,62.5,30.05,West,277,2.5,3.5,73,0.00,CLR,,0.00,WeatherDisplay:10.37,2013-09-05 06:17:00,
2013-09-05 02:22:00,71.6,62.5,30.04,WNW,297,3.0,3.5,73,0.00,CLR,,0.00,WeatherDisplay:10.37,2013-09-05 06:22:00,
2013-09-05 02:27:00,71.6,62.9,30.04,West,275,3.3,4.0,74,0.00,CLR,,0.00,WeatherDisplay:10.37,2013-09-05 06:27:00,
2013-09-05 02:32:00,71.5,62.8,30.04,West,275,2.2,3.5,74,0.00,CLR,,0.00,WeatherDisplay:10.37,2013-09-05 06:32:00,
2013-09-05 02:37:00,71.3,62.6,30.04,West,278,0.5,3.5,74,0.00,CLR,,0.00,WeatherDisplay:10.37,2013-09-05 06:37:00,
2013-09-05 02:42:00,71.1,62.4,30.04,West,278,0.7,3.5,74,0.00,CLR,,0.00,WeatherDisplay:10.37,2013-09-05 06:42:00,
2013-09-05 02:47:00,70.9,62.6,30.04,West,278,0.1,1.2,75,0.00,CLR,,0.00,WeatherDisplay:10.37,2013-09-05 06:47:00,
2013-09-05 02:52:00,70.8,62.5,30.04,West,278,0.0,0.0,75,0.00,CLR,,0.00,WeatherDisplay:10.37,2013-09-05 06:52:00,
2013-09-05 02:57:00,70.4,62.5,30.04,West,278,0.0,0.0,76,0.00,CLR,,0.00,WeatherDisplay:10.37,2013-09-05 06:57:00,
2013-09-05 03:02:00,70.4,62.5,30.04,West,278,0.1,0.0,76,0.00,CLR,,0.00,WeatherDisplay:10.37,2013-09-05 07:02:00,
2013-09-05 03:07:00,70.3,62.4,30.04,West,278,0.0,0.0,76,0.00,CLR,,0.00,WeatherDisplay:10.37,2013-09-05 07:07:00,
2013-09-05 03:12:00,70.1,62.2,30.04,West,278,0.6,2.0,76,0.00,CLR,,0.00,WeatherDisplay:10.37,2013-09-05 07:12:00,
2013-09-05 03:17:00,70.3,62.0,30.04,West,271,2.3,3.5,75,0.00,CLR,,0.00,WeatherDisplay:10.37,2013-09-05 07:17:00,
2013-09-05 03:22:00,70.6,61.9,30.04,WSW,251,0.8,4.6,74,0.00,CLR,,0.00,WeatherDisplay:10.37,2013-09-05 07:22:00,
2013-09-05 03:27:00,70.4,61.7,30.04,WSW,251,0.0,0.0,74,0.00,CLR,,0.00,WeatherDisplay:10.37,2013-09-05 07:27:00,
2013-09-05 03:32:00,70.4,61.7,30.03,WSW,252,1.1,3.5,74,0.00,CLR,,0.00,WeatherDisplay:10.37,2013-09-05 07:32:00,
2013-09-05 03:37:00,70.6,61.5,30.03,West,275,2.3,3.5,73,0.00,CLR,,0.00,WeatherDisplay:10.37,2013-09-05 07:37:00,
2013-09-05 03:42:00,70.8,61.3,30.03,West,275,2.8,3.5,72,0.00,CLR,,0.00,WeatherDisplay:10.37,2013-09-05 07:42:00,
2013-09-05 03:47:00,70.8,60.9,30.04,West,277,3.4,4.0,71,0.00,CLR,,0.00,WeatherDisplay:10.37,2013-09-05 07:47:00,
2013-09-05 03:52:00,70.8,60.9,30.04,West,280,1.8,3.5,71,0.00,CLR,,0.00,WeatherDisplay:10.37,2013-09-05 07:52:00,
2013-09-05 03:57:00,70.8,60.9,30.03,West,277,2.3,3.5,71,0.00,CLR,,0.00,WeatherDisplay:10.37,2013-09-05 07:57:00,
2013-09-05 04:02:00,70.6,60.7,30.03,West,272,2.4,3.5,71,0.00,CLR,,0.00,WeatherDisplay:10.37,2013-09-05 08:02:00,
2013-09-05 04:07:00,70.4,60.9,30.03,West,275,1.8,3.5,72,0.00,CLR,,0.00,WeatherDisplay:10.37,2013-09-05 08:07:00,
2013-09-05 04:12:00,70.3,61.2,30.04,West,275,0.0,1.2,73,0.00,CLR,,0.00,WeatherDisplay:10.37,2013-09-05 08:12:00,
2013-09-05 04:17:00,70.1,61.4,30.04,West,277,3.0,4.6,74,0.00,CLR,,0.00,WeatherDisplay:10.37,2013-09-05 08:17:00,
2013-09-05 04:22:00,70.3,61.2,30.04,WNW,288,3.1,4.6,73,0.00,CLR,,0.00,WeatherDisplay:10.37,2013-09-05 08:22:00,
2013-09-05 04:27:00,70.4,61.3,30.04,WNW,287,2.5,3.5,73,0.00,CLR,,0.00,WeatherDisplay:10.37,2013-09-05 08:27:00,
2013-09-05 04:32:00,70.6,61.5,30.04,WNW,284,2.4,3.5,73,0.00,CLR,,0.00,WeatherDisplay:10.37,2013-09-05 08:32:00,
2013-09-05 04:37:00,70.8,60.9,30.04,WNW,282,5.0,6.9,71,0.00,CLR,,0.00,WeatherDisplay:10.37,2013-09-05 08:37:00,
2013-09-05 04:42:00,70.9,61.0,30.04,West,277,3.4,6.9,71,0.00,CLR,,0.00,WeatherDisplay:10.37,2013-09-05 08:42:00,
2013-09-05 04:47:00,70.9,61.0,30.04,WNW,291,3.0,5.8,71,0.00,CLR,,0.00,WeatherDisplay:10.37,2013-09-05 08:47:00,
2013-09-05 04:52:00,70.9,61.0,30.04,WNW,288,3.7,5.8,71,0.00,CLR,,0.00,WeatherDisplay:10.37,2013-09-05 08:52:00,
2013-09-05 04:57:00,70.9,61.0,30.04,WNW,287,2.8,4.6,71,0.00,CLR,,0.00,WeatherDisplay:10.37,2013-09-05 08:57:00,
2013-09-05 05:02:00,70.8,60.9,30.04,West,274,2.8,5.0,71,0.00,CLR,,0.00,WeatherDisplay:10.37,2013-09-05 09:02:00,
2013-09-05 05:07:00,70.8,60.5,30.04,West,269,5.1,6.9,70,0.00,CLR,,0.00,WeatherDisplay:10.37,2013-09-05 09:07:00,
2013-09-05 05:13:00,70.8,60.5,30.04,West,281,4.8,5.8,70,0.00,CLR,,0.00,WeatherDisplay:10.37,2013-09-05 09:13:00,
2013-09-05 05:18:00,70.8,60.9,30.04,WNW,287,3.1,3.5,71,0.00,CLR,,0.00,WeatherDisplay:10.37,2013-09-05 09:18:00,
2013-09-05 05:23:00,70.4,60.5,30.04,West,275,2.9,5.8,71,0.00,CLR,,0.00,WeatherDisplay:10.37,2013-09-05 09:23:00,
2013-09-05 05:28:00,70.6,60.7,30.04,West,280,3.5,5.8,71,0.00,CLR,,0.00,WeatherDisplay:10.37,2013-09-05 09:28:00,
2013-09-05 05:33:00,70.6,59.9,30.04,WNW,292,5.8,9.2,69,0.00,CLR,,0.00,WeatherDisplay:10.37,2013-09-05 09:33:00,
2013-09-05 05:38:00,70.6,59.1,30.04,West,279,5.3,6.9,67,0.00,CLR,,0.00,WeatherDisplay:10.37,2013-09-05 09:38:00,
2013-09-05 05:43:00,70.6,59.5,30.04,West,279,2.2,3.5,68,0.00,CLR,,0.00,WeatherDisplay:10.37,2013-09-05 09:43:00,
2013-09-05 05:48:00,70.3,60.4,30.05,WNW,283,3.1,3.5,71,0.00,CLR,,0.00,WeatherDisplay:10.37,2013-09-05 09:48:00,
2013-09-05 05:53:00,70.3,60.8,30.05,WNW,302,3.8,6.9,72,0.00,CLR,,0.00,WeatherDisplay:10.37,2013-09-05 09:53:00,
2013-09-05 05:58:00,69.9,60.8,30.05,West,279,1.5,3.5,73,0.00,CLR,,0.00,WeatherDisplay:10.37,2013-09-05 09:58:00,
2013-09-05 06:03:00,69.8,60.8,30.05,West,269,4.4,6.9,73,0.00,CLR,,0.00,WeatherDisplay:10.37,2013-09-05 10:03:00,
2013-09-05 06:08:00,69.6,60.6,30.04,NW,304,3.8,4.6,73,0.00,CLR,,0.00,WeatherDisplay:10.37,2013-09-05 10:08:00,
2013-09-05 06:13:00,69.4,60.8,30.04,WNW,282,3.3,5.8,74,0.00,CLR,,0.00,WeatherDisplay:10.37,2013-09-05 10:13:00,
2013-09-05 06:18:00,69.4,60.8,30.04,WNW,290,2.6,3.5,74,0.00,CLR,,0.00,WeatherDisplay:10.37,2013-09-05 10:18:00,
2013-09-05 06:23:00,69.3,61.0,30.04,West,278,3.3,3.5,75,0.00,CLR,,0.00,WeatherDisplay:10.37,2013-09-05 10:23:00,
2013-09-05 06:28:00,69.4,61.1,30.04,West,275,4.3,4.3,75,0.00,CLR,,0.00,WeatherDisplay:10.37,2013-09-05 10:28:00,
2013-09-05 06:33:00,69.4,61.1,30.04,West,271,3.2,6.9,75,0.00,CLR,,0.00,WeatherDisplay:10.37,2013-09-05 10:33:00,
2013-09-05 06:38:00,69.6,61.3,30.05,WNW,296,3.2,5.8,75,0.00,CLR,,0.00,WeatherDisplay:10.37,2013-09-05 10:38:00,
2013-09-05 06:43:00,69.9,61.2,30.05,WNW,296,5.0,9.2,74,0.00,CLR,,0.00,WeatherDisplay:10.37,2013-09-05 10:43:00,
2013-09-05 06:48:00,70.3,61.2,30.05,WNW,290,4.5,8.1,73,0.00,CLR,,0.00,WeatherDisplay:10.37,2013-09-05 10:48:00,
2013-09-05 06:53:00,70.4,61.3,30.05,West,270,4.0,4.6,73,0.00,CLR,,0.00,WeatherDisplay:10.37,2013-09-05 10:53:00,
2013-09-05 06:58:00,70.4,61.7,30.05,WNW,292,4.9,6.9,74,0.00,CLR,,0.00,WeatherDisplay:10.37,2013-09-05 10:58:00,
2013-09-05 07:03:00,70.4,61.3,30.05,WNW,286,4.3,5.0,73,0.00,CLR,,0.00,WeatherDisplay:10.37,2013-09-05 11:03:00,
2013-09-05 07:08:00,70.6,61.5,30.05,WNW,284,5.0,9.2,73,0.00,CLR,,0.00,WeatherDisplay:10.37,2013-09-05 11:08:00,
2013-09-05 07:13:00,70.8,60.9,30.05,WNW,289,4.6,5.8,71,0.00,CLR,,0.00,WeatherDisplay:10.37,2013-09-05 11:13:00,
2013-09-05 07:18:00,70.9,61.0,30.05,WNW,290,3.3,5.8,71,0.00,CLR,,0.00,WeatherDisplay:10.37,2013-09-05 11:18:00,
2013-09-05 07:23:00,70.8,60.9,30.05,West,272,4.9,6.9,71,0.00,CLR,,0.00,WeatherDisplay:10.37,2013-09-05 11:23:00,
2013-09-05 07:28:00,70.8,60.9,30.05,WNW,293,4.8,6.0,71,0.00,CLR,,0.00,WeatherDisplay:10.37,2013-09-05 11:28:00,
2013-09-05 07:33:00,70.8,60.5,30.06,WNW,291,4.1,5.8,70,0.00,CLR,,0.00,WeatherDisplay:10.37,2013-09-05 11:33:00,
2013-09-05 07:38:00,70.8,60.5,30.06,WNW,288,4.3,6.9,70,0.00,CLR,,0.00,WeatherDisplay:10.37,2013-09-05 11:38:00,
2013-09-05 07:43:00,70.8,60.5,30.06,WNW,300,3.7,3.7,70,0.00,CLR,,0.00,WeatherDisplay:10.37,2013-09-05 11:43:00,
2013-09-05 07:48:00,70.9,60.6,30.06,WNW,302,4.2,5.8,70,0.00,CLR,,0.00,WeatherDisplay:10.37,2013-09-05 11:48:00,
2013-09-05 07:53:00,70.9,60.2,30.06,West,281,4.7,6.9,69,0.00,CLR,,0.00,WeatherDisplay:10.37,2013-09-05 11:53:00,
2013-09-05 07:58:00,70.9,60.2,30.06,WNW,288,4.3,6.9,69,0.00,CLR,,0.00,WeatherDisplay:10.37,2013-09-05 11:58:00,
2013-09-05 08:03:00,70.9,61.0,30.06,WNW,292,3.9,5.8,71,0.00,CLR,,0.00,WeatherDisplay:10.37,2013-09-05 12:03:00,
2013-09-05 08:08:00,71.1,60.8,30.06,WNW,286,4.7,5.8,70,0.00,CLR,,0.00,WeatherDisplay:10.37,2013-09-05 12:08:00,
2013-09-05 08:13:00,71.1,60.8,30.06,WNW,289,3.6,4.6,70,0.00,CLR,,0.00,WeatherDisplay:10.37,2013-09-05 12:13:00,
2013-09-05 08:18:00,71.1,60.8,30.06,WNW,288,2.5,3.5,70,0.00,CLR,,0.00,WeatherDisplay:10.37,2013-09-05 12:18:00,
2013-09-05 08:23:00,71.3,61.0,30.06,WNW,298,4.1,5.8,70,0.00,CLR,,0.00,WeatherDisplay:10.37,2013-09-05 12:23:00,
2013-09-05 08:28:00,71.5,60.8,30.06,West,281,4.0,4.6,69,0.00,CLR,,0.00,WeatherDisplay:10.37,2013-09-05 12:28:00,
2013-09-05 08:33:00,71.6,60.9,30.06,West,281,3.2,5.0,69,0.00,CLR,,0.00,WeatherDisplay:10.37,2013-09-05 12:33:00,
2013-09-05 08:38:00,71.6,60.9,30.06,WNW,292,4.4,4.6,69,0.00,CLR,,0.00,WeatherDisplay:10.37,2013-09-05 12:38:00,
2013-09-05 08:43:00,71.8,61.1,30.06,NW,304,3.3,4.6,69,0.00,CLR,,0.00,WeatherDisplay:10.37,2013-09-05 12:43:00,
2013-09-05 08:48:00,71.8,61.1,30.06,WNW,298,4.6,4.6,69,0.00,CLR,,0.00,WeatherDisplay:10.37,2013-09-05 12:48:00,
2013-09-05 08:53:00,72.0,61.3,30.06,West,281,2.9,4.0,69,0.00,CLR,,0.00,WeatherDisplay:10.37,2013-09-05 12:53:00,
2013-09-05 08:58:00,72.1,61.0,30.06,West,263,4.1,4.6,68,0.00,CLR,,0.00,WeatherDisplay:10.37,2013-09-05 12:58:00,
2013-09-05 09:03:00,72.1,61.0,30.06,NW,304,4.3,6.0,68,0.00,CLR,,0.00,WeatherDisplay:10.37,2013-09-05 13:03:00,
2013-09-05 09:08:00,72.1,61.0,30.06,WNW,288,2.5,4.0,68,0.00,CLR,,0.00,WeatherDisplay:10.37,2013-09-05 13:08:00,
2013-09-05 09:13:00,72.1,61.0,30.06,WNW,294,3.6,6.0,68,0.00,CLR,,0.00,WeatherDisplay:10.37,2013-09-05 13:13:00,
2013-09-05 09:18:00,72.7,61.5,30.06,NW,320,4.4,6.9,68,0.00,CLR,,0.00,WeatherDisplay:10.37,2013-09-05 13:18:00,
2013-09-05 09:23:00,73.0,61.4,30.06,WNW,292,3.4,4.6,67,0.00,CLR,,0.00,WeatherDisplay:10.37,2013-09-05 13:23:00,
2013-09-05 09:28:00,73.3,62.1,30.06,WNW,283,3.6,4.6,68,0.00,CLR,,0.00,WeatherDisplay:10.37,2013-09-05 13:28:00,
2013-09-05 09:33:00,73.7,62.1,30.06,West,277,1.8,3.5,67,0.00,CLR,,0.00,WeatherDisplay:10.37,2013-09-05 13:33:00,
2013-09-05 09:38:00,74.0,61.5,30.06,WNW,287,3.1,3.5,65,0.00,CLR,,0.00,WeatherDisplay:10.37,2013-09-05 13:38:00,
2013-09-05 09:43:00,73.9,61.0,30.06,WNW,284,3.6,5.8,64,0.00,CLR,,0.00,WeatherDisplay:10.37,2013-09-05 13:43:00,
2013-09-05 09:48:00,73.9,61.4,30.06,WNW,291,2.7,3.5,65,0.00,CLR,,0.00,WeatherDisplay:10.37,2013-09-05 13:48:00,
2013-09-05 09:53:00,74.2,61.2,30.06,NW,317,3.6,5.8,64,0.00,CLR,,0.00,WeatherDisplay:10.37,2013-09-05 13:53:00,
2013-09-05 09:58:00,74.7,62.1,30.06,WNW,288,3.0,4.6,65,0.00,CLR,,0.00,WeatherDisplay:10.37,2013-09-05 13:58:00,
2013-09-05 10:03:00,75.3,60.9,30.06,WNW,300,5.1,6.9,61,0.00,CLR,,0.00,WeatherDisplay:10.37,2013-09-05 14:03:00,
2013-09-05 10:08:00,75.4,60.5,30.06,West,279,4.0,5.8,60,0.00,CLR,,0.00,WeatherDisplay:10.37,2013-09-05 14:08:00,
2013-09-05 10:13:00,75.6,60.7,30.06,WNW,286,4.5,6.0,60,0.00,CLR,,0.00,WeatherDisplay:10.37,2013-09-05 14:13:00,
2013-09-05 10:18:00,76.0,60.6,30.06,WNW,292,4.7,5.8,59,0.00,CLR,,0.00,WeatherDisplay:10.37,2013-09-05 14:18:00,
2013-09-05 10:23:00,76.1,60.7,30.06,NW,325,4.1,4.6,59,0.00,CLR,,0.00,WeatherDisplay:10.37,2013-09-05 14:23:00,
2013-09-05 10:28:00,76.5,60.1,30.06,West,280,5.7,8.1,57,0.00,CLR,,0.00,WeatherDisplay:10.37,2013-09-05 14:28:00,
2013-09-05 10:33:00,76.7,60.8,30.06,West,274,4.2,6.9,58,0.00,CLR,,0.00,WeatherDisplay:10.37,2013-09-05 14:33:00,
2013-09-05 10:38:00,76.8,61.4,30.06,WNW,295,5.9,8.1,59,0.00,CLR,,0.00,WeatherDisplay:10.37,2013-09-05 14:38:00,
2013-09-05 10:43:00,77.0,61.1,30.06,WNW,296,4.0,4.6,58,0.00,CLR,,0.00,WeatherDisplay:10.37,2013-09-05 14:43:00,
2013-09-05 10:49:00,77.2,61.8,30.06,WNW,285,4.9,6.9,59,0.00,CLR,,0.00,WeatherDisplay:10.37,2013-09-05 14:49:00,
2013-09-05 10:54:00,77.6,62.1,30.06,West,281,4.0,5.0,59,0.00,CLR,,0.00,WeatherDisplay:10.37,2013-09-05 14:54:00,
2013-09-05 10:59:00,78.3,61.8,30.06,NW,306,1.5,3.5,57,0.00,CLR,,0.00,WeatherDisplay:10.37,2013-09-05 14:59:00,
2013-09-05 11:04:00,78.6,61.6,30.06,West,263,1.5,3.5,56,0.00,CLR,,0.00,WeatherDisplay:10.37,2013-09-05 15:04:00,
2013-09-05 11:09:00,78.3,61.3,30.06,WNW,298,0.8,3.5,56,0.00,CLR,,0.00,WeatherDisplay:10.37,2013-09-05 15:09:00,
2013-09-05 11:14:00,78.1,61.6,30.06,WNW,294,5.3,9.2,57,0.00,CLR,,0.00,WeatherDisplay:10.37,2013-09-05 15:14:00,
2013-09-05 11:19:00,78.5,62.0,30.06,NNW,327,1.8,3.5,57,0.00,CLR,,0.00,WeatherDisplay:10.37,2013-09-05 15:19:00,
2013-09-05 11:24:00,78.8,61.3,30.06,NW,307,6.0,10.4,55,0.00,CLR,,0.00,WeatherDisplay:10.37,2013-09-05 15:24:00,
2013-09-05 11:29:00,78.6,61.1,30.06,WNW,290,4.8,6.9,55,0.00,CLR,,0.00,WeatherDisplay:10.37,2013-09-05 15:29:00,
2013-09-05 11:34:00,78.3,61.3,30.06,WNW,287,3.4,5.8,56,0.00,CLR,,0.00,WeatherDisplay:10.37,2013-09-05 15:34:00,
2013-09-05 11:39:00,78.1,61.6,30.06,West,280,3.8,3.8,57,0.00,CLR,,0.00,WeatherDisplay:10.37,2013-09-05 15:39:00,
2013-09-05 11:44:00,78.6,63.1,30.06,West,261,2.5,4.0,59,0.00,CLR,,0.00,WeatherDisplay:10.37,2013-09-05 15:44:00,
2013-09-05 11:49:00,78.6,63.1,30.06,West,273,1.8,5.0,59,0.00,CLR,,0.00,WeatherDisplay:10.37,2013-09-05 15:49:00,
2013-09-05 11:54:00,79.6,61.5,30.06,West,281,5.2,7.0,54,0.00,CLR,,0.00,WeatherDisplay:10.37,2013-09-05 15:54:00,
2013-09-05 11:59:00,79.0,62.0,30.06,West,278,4.4,5.8,56,0.00,CLR,,0.00,WeatherDisplay:10.37,2013-09-05 15:59:00,
2013-09-05 12:04:00,79.2,62.7,30.05,NNW,330,1.7,3.5,57,0.00,CLR,,0.00,WeatherDisplay:10.37,2013-09-05 16:04:00,
2013-09-05 12:09:00,79.2,61.6,30.06,WNW,286,2.6,5.8,55,0.00,CLR,,0.00,WeatherDisplay:10.37,2013-09-05 16:09:00,
2013-09-05 12:14:00,79.2,62.1,30.06,WNW,284,0.9,3.5,56,0.00,CLR,,0.00,WeatherDisplay:10.37,2013-09-05 16:14:00,
2013-09-05 12:19:00,79.6,63.0,30.05,West,275,4.4,4.6,57,0.00,CLR,,0.00,WeatherDisplay:10.37,2013-09-05 16:19:00,
2013-09-05 12:24:00,79.2,62.7,30.05,West,281,2.0,3.5,57,0.00,CLR,,0.00,WeatherDisplay:10.37,2013-09-05 16:24:00,
2013-09-05 12:29:00,79.2,62.7,30.05,West,279,4.0,5.8,57,0.00,CLR,,0.00,WeatherDisplay:10.37,2013-09-05 16:29:00,
2013-09-05 12:34:00,79.4,65.2,30.04,West,265,1.9,4.6,62,0.00,CLR,,0.00,WeatherDisplay:10.37,2013-09-05 16:34:00,
2013-09-05 12:39:00,79.4,63.3,30.04,WSW,254,3.1,4.0,58,0.00,CLR,,0.00,WeatherDisplay:10.37,2013-09-05 16:39:00,
2013-09-05 12:44:00,79.8,63.2,30.04,West,277,3.9,5.0,57,0.00,CLR,,0.00,WeatherDisplay:10.37,2013-09-05 16:44:00,
2013-09-05 12:49:00,79.6,63.0,30.04,NW,323,3.2,4.6,57,0.00,CLR,,0.00,WeatherDisplay:10.37,2013-09-05 16:49:00,
2013-09-05 12:54:00,79.0,62.5,30.04,West,279,3.8,5.8,57,0.00,CLR,,0.00,WeatherDisplay:10.37,2013-09-05 16:54:00,
2013-09-05 12:59:00,79.0,62.5,30.04,West,281,4.2,4.2,57,0.00,CLR,,0.00,WeatherDisplay:10.37,2013-09-05 16:59:00,
2013-09-05 13:04:00,79.2,62.7,30.04,NNW,327,2.5,4.6,57,0.00,CLR,,0.00,WeatherDisplay:10.37,2013-09-05 17:04:00,
2013-09-05 13:09:00,79.4,62.3,30.04,WNW,290,2.8,4.0,56,0.00,CLR,,0.00,WeatherDisplay:10.37,2013-09-05 17:09:00,
2013-09-05 13:14:00,79.6,65.0,30.04,NW,325,0.9,3.5,61,0.00,CLR,,0.00,WeatherDisplay:10.37,2013-09-05 17:14:00,
2013-09-05 13:19:00,79.9,62.3,30.04,NW,325,1.5,3.5,55,0.00,CLR,,0.00,WeatherDisplay:10.37,2013-09-05 17:19:00,
2013-09-05 13:24:00,80.1,62.5,30.04,NW,326,2.7,5.8,55,0.00,CLR,,0.00,WeatherDisplay:10.37,2013-09-05 17:24:00,
2013-09-05 13:29:00,80.3,63.2,30.04,West,268,2.9,4.6,56,0.00,CLR,,0.00,WeatherDisplay:10.37,2013-09-05 17:29:00,
2013-09-05 13:34:00,80.5,63.4,30.04,NNW,336,1.9,3.5,56,0.00,CLR,,0.00,WeatherDisplay:10.37,2013-09-05 17:34:00,
2013-09-05 13:39:00,80.1,62.0,30.04,WNW,284,0.9,3.5,54,0.00,CLR,,0.00,WeatherDisplay:10.37,2013-09-05 17:39:00,
2013-09-05 13:44:00,80.5,62.8,30.03,West,279,0.8,3.5,55,0.00,CLR,,0.00,WeatherDisplay:10.37,2013-09-05 17:44:00,
2013-09-05 13:49:00,80.7,62.5,30.03,NNW,335,0.0,3.5,54,0.00,CLR,,0.00,WeatherDisplay:10.37,2013-09-05 17:49:00,
2013-09-05 13:54:00,81.4,63.7,30.03,NNW,333,4.3,4.6,55,0.00,CLR,,0.00,WeatherDisplay:10.37,2013-09-05 17:54:00,
2013-09-05 13:59:00,81.4,62.1,30.03,WSW,249,3.5,9.2,52,0.00,CLR,,0.00,WeatherDisplay:10.37,2013-09-05 17:59:00,
2013-09-05 14:04:00,81.1,62.3,30.03,West,273,2.8,5.8,53,0.00,CLR,,0.00,WeatherDisplay:10.37,2013-09-05 18:04:00,
2013-09-05 14:09:00,81.1,63.9,30.03,WNW,284,2.2,4.6,56,0.00,CLR,,0.00,WeatherDisplay:10.37,2013-09-05 18:09:00,
2013-09-05 14:14:00,81.1,62.3,30.03,NNW,348,2.5,3.5,53,0.00,SCT,,0.00,WeatherDisplay:10.37,2013-09-05 18:14:00,
2013-09-05 14:19:00,81.4,62.1,30.03,West,275,1.4,3.5,52,0.00,SCT,,0.00,WeatherDisplay:10.37,2013-09-05 18:19:00,
2013-09-05 14:24:00,80.9,62.2,30.03,West,275,0.7,0.0,53,0.00,SCT,,0.00,WeatherDisplay:10.37,2013-09-05 18:24:00,
2013-09-05 14:29:00,80.9,62.2,30.03,West,275,0.9,3.0,53,0.00,SCT,,0.00,WeatherDisplay:10.37,2013-09-05 18:29:00,
2013-09-05 14:34:00,80.6,61.9,30.03,West,277,3.0,11.0,53,0.00,SCT,SCT,0.00,WeatherDisplay:10.37,2013-09-05 18:34:00,
2013-09-05 14:39:00,80.5,64.4,30.03,WNW,294,2.7,5.0,58,0.00,SCT,,0.00,WeatherDisplay:10.37,2013-09-05 18:39:00,
2013-09-05 14:44:00,81.8,63.0,30.03,NNW,344,1.8,3.5,53,0.00,CLR,,0.00,WeatherDisplay:10.37,2013-09-05 18:44:00,
2013-09-05 14:49:00,82.0,63.2,30.02,NNW,343,0.0,5.8,53,0.00,CLR,,0.00,WeatherDisplay:10.37,2013-09-05 18:49:00,
2013-09-05 14:54:00,82.0,63.2,30.02,NW,323,0.0,11.0,53,0.00,CLR,CLR,0.00,WeatherDisplay:10.37,2013-09-05 18:54:00,
2013-09-05 14:59:00,81.8,62.5,30.02,NW,323,0.3,3.5,52,0.00,CLR,,0.00,WeatherDisplay:10.37,2013-09-05 18:59:00,
2013-09-05 15:04:00,81.3,63.1,30.02,WNW,293,1.0,3.0,54,0.00,CLR,CLR,0.00,WeatherDisplay:10.37,2013-09-05 19:04:00,
2013-09-05 15:09:00,80.9,63.2,30.02,NNW,340,0.5,3.5,55,0.00,CLR,,0.00,WeatherDisplay:10.37,2013-09-05 19:09:00,
2013-09-05 15:14:00,80.8,63.6,30.02,North,350,1.0,11.0,56,0.00,CLR,CLR,0.00,WeatherDisplay:10.37,2013-09-05 19:14:00,
2013-09-05 15:19:00,81.1,62.9,30.02,NNW,336,0.9,1.2,54,0.00,CLR,,0.00,WeatherDisplay:10.37,2013-09-05 19:19:00,
2013-09-05 15:24:00,81.0,62.7,30.02,NW,315,1.0,4.0,54,0.00,CLR,CLR,0.00,WeatherDisplay:10.37,2013-09-05 19:24:00,
2013-09-05 15:29:00,80.9,61.6,30.02,West,267,2.8,4.6,52,0.00,CLR,,0.00,WeatherDisplay:10.37,2013-09-05 19:29:00,
2013-09-05 15:34:00,81.0,61.2,30.02,West,273,3.0,5.0,51,0.00,CLR,CLR,0.00,WeatherDisplay:10.37,2013-09-05 19:34:00,
2013-09-05 15:39:00,80.5,60.1,30.02,WNW,298,1.9,4.6,50,0.00,CLR,,0.00,WeatherDisplay:10.37,2013-09-05 19:39:00,
2013-09-05 15:44:00,80.1,61.4,30.02,WNW,285,2.0,11.0,53,0.00,SCT,SCT,0.00,WeatherDisplay:10.37,2013-09-05 19:44:00,
2013-09-05 15:49:00,79.9,61.2,30.02,West,281,3.2,3.5,53,0.00,SCT,,0.00,WeatherDisplay:10.37,2013-09-05 19:49:00,
2013-09-05 15:54:00,80.9,61.1,30.01,WNW,286,3.0,5.0,51,0.00,SCT,SCT,0.00,WeatherDisplay:10.37,2013-09-05 19:54:00,
2013-09-05 15:59:00,81.6,62.3,30.01,West,267,4.4,6.9,52,0.00,SCT,,0.00,WeatherDisplay:10.37,2013-09-05 19:59:00,
2013-09-05 16:04:00,81.1,62.9,30.02,West,279,2.0,5.0,54,0.00,SCT,SCT,0.00,WeatherDisplay:10.37,2013-09-05 20:04:00,
2013-09-05 16:09:00,80.7,61.4,30.02,West,276,4.3,5.8,52,0.00,SCT,,0.00,WeatherDisplay:10.37,2013-09-05 20:09:00,
2013-09-05 16:14:00,81.1,62.9,30.02,NW,305,3.0,11.0,54,0.00,SCT,SCT,0.00,WeatherDisplay:10.37,2013-09-05 20:14:00,
2013-09-05 16:19:00,81.4,62.6,30.02,NNW,329,1.0,5.0,53,0.00,SCT,SCT,0.00,WeatherDisplay:10.37,2013-09-05 20:19:00,
2013-09-05 16:24:00,81.1,62.9,30.02,NNW,332,0.0,11.0,54,0.00,SCT,SCT,0.00,WeatherDisplay:10.37,2013-09-05 20:24:00,
2013-09-05 16:29:00,81.2,61.9,30.02,NNW,334,2.2,4.6,52,0.00,SCT,,0.00,WeatherDisplay:10.37,2013-09-05 20:29:00,
2013-09-05 16:34:00,80.7,60.9,30.02,NNW,334,1.0,11.0,51,0.00,SCT,SCT,0.00,WeatherDisplay:10.37,2013-09-05 20:34:00,
2013-09-05 16:39:00,80.1,61.4,30.03,NNW,344,1.8,3.5,53,0.00,SCT,,0.00,WeatherDisplay:10.37,2013-09-05 20:39:00,
2013-09-05 16:44:00,79.8,61.1,30.02,NNW,341,2.0,11.0,53,0.00,CLR,CLR,0.00,WeatherDisplay:10.37,2013-09-05 20:44:00,
2013-09-05 16:49:00,79.8,61.1,30.03,NNW,342,0.9,3.0,53,0.00,CLR,,0.00,WeatherDisplay:10.37,2013-09-05 20:49:00,
2013-09-05 16:54:00,79.6,60.4,30.03,NNW,337,1.0,5.0,52,0.00,CLR,CLR,0.00,WeatherDisplay:10.37,2013-09-05 20:54:00,
2013-09-05 16:59:00,79.4,59.7,30.03,NNW,343,2.7,4.6,51,0.00,CLR,,0.00,WeatherDisplay:10.37,2013-09-05 20:59:00,
2013-09-05 17:04:00,79.4,58.6,30.03,NNW,331,2.1,3.5,49,0.00,CLR,,0.00,WeatherDisplay:10.37,2013-09-05 21:04:00,
2013-09-05 17:09:00,79.2,59.0,30.03,NNW,344,2.9,3.5,50,0.00,CLR,,0.00,WeatherDisplay:10.37,2013-09-05 21:09:00,
2013-09-05 17:14:00,79.0,59.9,30.03,NNW,344,3.0,11.0,52,0.00,CLR,CLR,0.00,WeatherDisplay:10.37,2013-09-05 21:14:00,
2013-09-05 17:19:00,78.6,60.0,30.03,NW,322,3.5,3.5,53,0.00,CLR,,0.00,WeatherDisplay:10.37,2013-09-05 21:19:00,
2013-09-05 17:24:00,78.6,60.0,30.03,NNW,344,1.0,11.0,53,0.00,CLR,CLR,0.00,WeatherDisplay:10.37,2013-09-05 21:24:00,
2013-09-05 17:29:00,78.6,60.0,30.03,NNW,343,0.5,4.0,53,0.00,CLR,,0.00,WeatherDisplay:10.37,2013-09-05 21:29:00,
2013-09-05 17:34:00,78.6,61.0,30.03,NNW,340,1.0,11.0,55,0.00,CLR,CLR,0.00,WeatherDisplay:10.37,2013-09-05 21:34:00,
2013-09-05 17:39:00,78.5,61.0,30.03,NNW,338,0.4,3.5,55,0.00,CLR,,0.00,WeatherDisplay:10.37,2013-09-05 21:39:00,
2013-09-05 17:44:00,78.3,60.3,30.03,NNW,339,1.0,11.0,54,0.00,CLR,CLR,0.00,WeatherDisplay:10.37,2013-09-05 21:44:00,
2013-09-05 17:49:00,78.1,59.6,30.03,North,350,0.6,3.5,53,0.00,CLR,,0.00,WeatherDisplay:10.37,2013-09-05 21:49:00,
2013-09-05 17:54:00,78.1,59.6,30.03,NNW,340,2.0,11.0,53,0.00,CLR,CLR,0.00,WeatherDisplay:10.37,2013-09-05 21:54:00,
2013-09-05 17:59:00,77.9,59.9,30.04,NNW,335,3.8,5.0,54,0.00,CLR,,0.00,WeatherDisplay:10.37,2013-09-05 21:59:00,
2013-09-05 18:04:00,77.9,59.4,30.04,NNW,342,3.0,7.0,53,0.00,CLR,CLR,0.00,WeatherDisplay:10.37,2013-09-05 22:04:00,
2013-09-05 18:09:00,77.9,59.9,30.04,NNW,331,0.7,2.3,54,0.00,CLR,,0.00,WeatherDisplay:10.37,2013-09-05 22:09:00,
2013-09-05 18:14:00,77.9,59.9,30.04,NNW,346,1.5,2.0,54,0.00,SCT,,0.00,WeatherDisplay:10.37,2013-09-05 22:14:00,
2013-09-05 18:19:00,77.9,60.4,30.04,NNW,346,1.7,4.0,55,0.00,SCT,,0.00,WeatherDisplay:10.37,2013-09-05 22:19:00,
2013-09-05 18:24:00,77.9,60.4,30.04,NNW,345,1.0,11.0,55,0.00,SCT,SCT,0.00,WeatherDisplay:10.37,2013-09-05 22:24:00,
2013-09-05 18:29:00,77.9,60.9,30.04,WNW,284,1.2,4.0,56,0.00,SCT,,0.00,WeatherDisplay:10.37,2013-09-05 22:29:00,
2013-09-05 18:34:00,77.7,61.3,30.04,WNW,284,0.1,2.3,57,0.00,SCT,,0.00,WeatherDisplay:10.37,2013-09-05 22:34:00,
2013-09-05 18:39:00,77.6,61.2,30.04,WNW,284,0.0,11.0,57,0.00,SCT,SCT,0.00,WeatherDisplay:10.37,2013-09-05 22:39:00,
2013-09-05 18:44:00,77.6,60.2,30.04,WNW,284,0.0,11.0,55,0.00,SCT,SCT,0.00,WeatherDisplay:10.37,2013-09-05 22:44:00,
2013-09-05 18:49:00,77.6,60.2,30.04,WNW,284,1.0,3.5,55,0.00,SCT,,0.00,WeatherDisplay:10.37,2013-09-05 22:49:00,
2013-09-05 18:54:00,77.3,60.4,30.04,WNW,284,2.0,11.0,56,0.00,CLR,CLR,0.00,WeatherDisplay:10.37,2013-09-05 22:54:00,
2013-09-05 18:59:00,77.0,60.1,30.04,WNW,284,1.2,3.5,56,0.00,CLR,,0.00,WeatherDisplay:10.37,2013-09-05 22:59:00,
2013-09-05 19:04:00,77.0,60.6,30.04,WNW,284,0.3,2.3,57,0.00,CLR,,0.00,WeatherDisplay:10.37,2013-09-05 23:04:00,
2013-09-05 19:09:00,76.8,60.9,30.04,WNW,284,0.0,4.0,58,0.00,CLR,CLR,0.00,WeatherDisplay:10.37,2013-09-05 23:09:00,
2013-09-05 19:14:00,76.7,59.8,30.04,WNW,284,1.5,3.5,56,0.00,CLR,,0.00,WeatherDisplay:10.37,2013-09-05 23:14:00,
2013-09-05 19:19:00,76.7,60.3,30.04,WNW,284,0.0,11.0,57,0.00,CLR,CLR,0.00,WeatherDisplay:10.37,2013-09-05 23:19:00,
2013-09-05 19:24:00,76.5,60.6,30.04,WNW,284,0.0,0.0,58,0.00,CLR,,0.00,WeatherDisplay:10.37,2013-09-05 23:24:00,
2013-09-05 19:29:00,76.5,60.6,30.05,WNW,284,0.0,0.0,58,0.00,CLR,,0.00,WeatherDisplay:10.37,2013-09-05 23:29:00,
2013-09-05 19:34:00,76.5,61.6,30.05,WNW,284,0.0,11.0,60,0.00,CLR,CLR,0.00,WeatherDisplay:10.37,2013-09-05 23:34:00,
2013-09-05 19:39:00,76.0,61.6,30.05,WNW,284,0.0,0.0,61,0.00,CLR,,0.00,WeatherDisplay:10.37,2013-09-05 23:39:00,
2013-09-05 19:44:00,75.8,61.8,30.06,WNW,284,0.0,11.0,62,0.00,SCT,SCT,0.00,WeatherDisplay:10.37,2013-09-05 23:44:00,
2013-09-05 19:49:00,75.3,61.4,30.06,WNW,284,0.0,0.0,62,0.00,SCT,,0.00,WeatherDisplay:10.37,2013-09-05 23:49:00,
2013-09-05 19:54:00,74.6,60.7,30.06,WNW,284,0.0,0.0,62,0.00,SCT,,0.00,WeatherDisplay:10.37,2013-09-05 23:54:00,
2013-09-05 19:59:00,74.2,60.8,30.06,WNW,284,0.0,11.0,63,0.00,SCT,SCT,0.00,WeatherDisplay:10.37,2013-09-05 23:59:00,
2013-09-05 20:04:00,73.7,60.3,30.06,WNW,284,0.0,0.0,63,0.00,SCT,SCT,0.00,WeatherDisplay:10.37,2013-09-06 00:04:00,
2013-09-05 20:09:00,73.3,59.9,30.07,WNW,284,0.0,0.0,63,0.00,SCT,,0.00,WeatherDisplay:10.37,2013-09-06 00:09:00,
2013-09-05 20:14:00,73.0,59.2,30.07,WNW,284,0.0,0.0,62,0.00,SCT,,0.00,WeatherDisplay:10.37,2013-09-06 00:14:00,
2013-09-05 20:19:00,73.0,59.2,30.07,WNW,284,0.0,0.0,62,0.00,SCT,,0.00,WeatherDisplay:10.37,2013-09-06 00:19:00,
2013-09-05 20:24:00,72.8,58.5,30.07,WNW,284,0.0,11.0,61,0.00,SCT,SCT,0.00,WeatherDisplay:10.37,2013-09-06 00:24:00,
2013-09-05 20:29:00,72.7,58.9,30.08,WNW,284,0.0,0.0,62,0.00,SCT,,0.00,WeatherDisplay:10.37,2013-09-06 00:29:00,
2013-09-05 20:34:00,72.3,58.5,30.08,WNW,284,0.0,0.0,62,0.00,SCT,,0.00,WeatherDisplay:10.37,2013-09-06 00:34:00,
2013-09-05 20:39:00,71.8,58.1,30.08,WNW,284,0.0,0.0,62,0.00,SCT,,0.00,WeatherDisplay:10.37,2013-09-06 00:39:00,
2013-09-05 20:44:00,71.5,58.2,30.08,WNW,284,0.0,0.0,63,0.00,BKN,BKN,0.00,WeatherDisplay:10.37,2013-09-06 00:44:00,
2013-09-05 20:49:00,70.9,58.1,30.09,WNW,284,0.0,0.0,64,0.00,BKN,,0.00,WeatherDisplay:10.37,2013-09-06 00:49:00,
2013-09-05 20:54:00,70.8,58.4,30.09,WNW,284,0.0,11.0,65,0.00,BKN,BKN,0.00,WeatherDisplay:10.37,2013-09-06 00:54:00,
2013-09-05 20:59:00,70.4,58.5,30.09,WNW,284,0.0,11.0,66,0.00,BKN,BKN,0.00,WeatherDisplay:10.37,2013-09-06 00:59:00,
2013-09-05 21:04:00,70.3,58.8,30.09,WNW,284,0.0,0.0,67,0.00,BKN,,0.00,WeatherDisplay:10.37,2013-09-06 01:04:00,
2013-09-05 21:09:00,70.1,58.6,30.09,WNW,284,0.0,11.0,67,0.00,BKN,BKN,0.00,WeatherDisplay:10.37,2013-09-06 01:09:00,
2013-09-05 21:14:00,70.1,58.6,30.10,WNW,284,0.0,0.0,67,0.00,BKN,,0.00,WeatherDisplay:10.37,2013-09-06 01:14:00,
2013-09-05 21:19:00,70.3,58.0,30.10,WNW,285,0.0,11.0,65,0.00,BKN,BKN,0.00,WeatherDisplay:10.37,2013-09-06 01:19:00,
2013-09-05 21:24:00,70.6,55.6,30.10,West,280,0.5,2.3,59,0.00,SCT,,0.00,WeatherDisplay:10.37,2013-09-06 01:24:00,
2013-09-05 21:29:00,70.9,54.9,30.10,West,277,0.0,11.0,57,0.00,SCT,SCT,0.00,WeatherDisplay:10.37,2013-09-06 01:29:00,
2013-09-05 21:34:00,70.9,54.4,30.11,West,271,0.0,0.0,56,0.00,SCT,,0.00,WeatherDisplay:10.37,2013-09-06 01:34:00,
2013-09-05 21:39:00,70.9,54.9,30.11,West,272,0.0,11.0,57,0.00,SCT,SCT,0.00,WeatherDisplay:10.37,2013-09-06 01:39:00,
2013-09-05 21:44:00,70.6,55.6,30.12,West,271,0.0,0.0,59,0.00,SCT,,0.00,WeatherDisplay:10.37,2013-09-06 01:44:00,
2013-09-05 21:49:00,70.3,54.8,30.12,West,271,0.0,2.0,58,0.00,SCT,SCT,0.00,WeatherDisplay:10.37,2013-09-06 01:49:00,
2013-09-05 21:54:00,69.9,54.0,30.12,West,271,0.0,0.0,57,0.00,SCT,,0.00,WeatherDisplay:10.37,2013-09-06 01:54:00,
2013-09-05 21:59:00,69.4,54.0,30.12,WSW,251,0.0,0.0,58,0.00,SCT,,0.00,WeatherDisplay:10.37,2013-09-06 01:59:00,
2013-09-05 22:04:00,68.9,53.5,30.12,WSW,251,0.0,0.0,58,0.00,CLR,,0.00,WeatherDisplay:10.37,2013-09-06 02:04:00,
2013-09-05 22:09:00,68.4,52.1,30.12,WSW,251,0.0,0.0,56,0.00,CLR,,0.00,WeatherDisplay:10.37,2013-09-06 02:09:00,
2013-09-05 22:14:00,68.3,52.5,30.12,WSW,251,0.0,0.0,57,0.00,CLR,,0.00,WeatherDisplay:10.37,2013-09-06 02:14:00,
2013-09-05 22:19:00,67.8,51.5,30.12,WSW,251,0.0,0.0,56,0.00,CLR,,0.00,WeatherDisplay:10.37,2013-09-06 02:19:00,
2013-09-05 22:25:00,67.4,51.2,30.13,WSW,251,0.0,0.0,56,0.00,SCT,,0.00,WeatherDisplay:10.37,2013-09-06 02:25:00,
2013-09-05 22:30:00,67.1,51.4,30.13,WSW,251,0.0,0.0,57,0.00,SCT,,0.00,WeatherDisplay:10.37,2013-09-06 02:30:00,
2013-09-05 22:35:00,66.9,52.1,30.13,WSW,251,0.0,0.0,59,0.00,SCT,,0.00,WeatherDisplay:10.37,2013-09-06 02:35:00,
2013-09-05 22:40:00,66.8,52.0,30.13,WSW,251,0.0,0.0,59,0.00,SCT,,0.00,WeatherDisplay:10.37,2013-09-06 02:40:00,
2013-09-05 22:45:00,66.4,51.2,30.14,WSW,251,0.0,0.0,58,0.00,CLR,,0.00,WeatherDisplay:10.37,2013-09-06 02:45:00,
2013-09-05 22:50:00,66.1,51.4,30.13,WSW,251,0.0,0.0,59,0.00,CLR,,0.00,WeatherDisplay:10.37,2013-09-06 02:50:00,
2013-09-05 22:55:00,66.0,51.3,30.13,WSW,251,0.0,0.0,59,0.00,CLR,,0.00,WeatherDisplay:10.37,2013-09-06 02:55:00,
2013-09-05 23:00:00,65.8,51.1,30.14,WSW,251,0.0,0.0,59,0.00,CLR,,0.00,WeatherDisplay:10.37,2013-09-06 03:00:00,
2013-09-05 23:05:00,65.6,50.9,30.14,WSW,251,0.0,0.0,59,0.00,SCT,,0.00,WeatherDisplay:10.37,2013-09-06 03:05:00,
2013-09-05 23:10:00,65.5,50.8,30.14,WSW,251,0.0,11.0,59,0.00,SCT,,0.00,WeatherDisplay:10.37,2013-09-06 03:10:00,
2013-09-05 23:15:00,65.3,50.6,30.14,WSW,251,0.0,11.0,59,0.00,SCT,,0.00,WeatherDisplay:10.37,2013-09-06 03:15:00,
2013-09-05 23:20:00,65.2,51.0,30.14,WSW,251,0.0,11.0,60,0.00,SCT,,0.00,WeatherDisplay:10.37,2013-09-06 03:20:00,
2013-09-05 23:25:00,65.0,51.7,30.14,WSW,251,0.0,11.0,62,0.00,CLR,,0.00,WeatherDisplay:10.37,2013-09-06 03:25:00,
2013-09-05 23:30:00,64.7,51.4,30.14,WSW,251,0.0,0.0,62,0.00,CLR,,0.00,WeatherDisplay:10.37,2013-09-06 03:30:00,
2013-09-05 23:35:00,64.3,51.0,30.14,WSW,251,0.0,11.0,62,0.00,CLR,,0.00,WeatherDisplay:10.37,2013-09-06 03:35:00,
2013-09-05 23:40:00,64.2,50.9,30.14,WSW,251,0.0,11.0,62,0.00,CLR,,0.00,WeatherDisplay:10.37,2013-09-06 03:40:00,
2013-09-05 23:45:00,63.9,51.5,30.15,WSW,251,0.0,11.0,64,0.00,CLR,,0.00,WeatherDisplay:10.37,2013-09-06 03:45:00,
2013-09-05 23:50:00,63.7,51.7,30.15,WSW,251,0.0,0.0,65,0.00,CLR,,0.00,WeatherDisplay:10.37,2013-09-06 03:50:00,
2013-09-05 23:55:00,63.2,50.8,30.14,WSW,251,0.0,0.0,64,0.00,CLR,,0.00,WeatherDisplay:10.37,2013-09-06 03:55:00,